Hourly Weather Kleczkowo

Today, 25 July, Sunday

Time Temperature Precipitation Wind Pressure Humidity
00:00 +19°C° 0 mm 2 mps 753 mmHg 72%
01:00 +19°C° 0 mm 2 mps 753 mmHg 72%
02:00 +19°C° 0 mm 2 mps 752 mmHg 71%
03:00 +19°C° 0 mm 2 mps 752 mmHg 69%
04:00 +19°C° 0 mm 2 mps 752 mmHg 68%
05:00 +20°C° 0 mm 3 mps 752 mmHg 68%
06:00 +20°C° 0 mm 3 mps 752 mmHg 68%
07:00 +21°C° 0 mm 3 mps 752 mmHg 65%
08:00 +23°C° 0 mm 4 mps 752 mmHg 60%
09:00 +26°C° 0 mm 4 mps 752 mmHg 55%
10:00 +28°C° 0 mm 5 mps 752 mmHg 50%
11:00 +29°C° 0 mm 5 mps 752 mmHg 46%
12:00 +30°C° 0 mm 5 mps 752 mmHg 43%
13:00 +32°C° 0 mm 5 mps 752 mmHg 39%
14:00 +30°C° 0 mm 4 mps 752 mmHg 42%
15:00 +30°C° 0 mm 3 mps 751 mmHg 45%
16:00 +29°C° 0 mm 2 mps 751 mmHg 48%
17:00 +28°C° 0 mm 2 mps 751 mmHg 53%
18:00 +27°C° 0 mm 2 mps 751 mmHg 57%
19:00 +26°C° 0 mm 1 mps 751 mmHg 62%
20:00 +25°C° 0 mm 2 mps 751 mmHg 65%
21:00 +23°C° 0 mm 2 mps 751 mmHg 68%
22:00 +21°C° 0 mm 3 mps 751 mmHg 71%
23:00 +21°C° 0 mm 3 mps 752 mmHg 71%

Tomorrow, 26 July, Monday

Time Temperature Precipitation Wind Pressure Humidity
00:00 +20°C° 0 mm 3 mps 752 mmHg 72%
01:00 +20°C° 0 mm 3 mps 752 mmHg 72%
02:00 +20°C° 0 mm 4 mps 752 mmHg 70%
03:00 +20°C° 0 mm 4 mps 751 mmHg 69%
04:00 +21°C° 0 mm 4 mps 751 mmHg 67%
05:00 +21°C° 0 mm 4 mps 751 mmHg 67%
06:00 +21°C° 0 mm 5 mps 751 mmHg 68%
07:00 +21°C° 0 mm 5 mps 751 mmHg 69%
08:00 +22°C° 0 mm 5 mps 751 mmHg 67%
09:00 +23°C° 0 mm 4 mps 751 mmHg 64%
10:00 +25°C° 0 mm 4 mps 751 mmHg 62%
11:00 +27°C° 0 mm 4 mps 751 mmHg 57%
12:00 +29°C° 0 mm 4 mps 751 mmHg 51%
13:00 +30°C° 0 mm 5 mps 750 mmHg 46%
14:00 +30°C° 0 mm 4 mps 750 mmHg 48%
15:00 +30°C° 0 mm 3 mps 750 mmHg 50%
16:00 +29°C° 0 mm 2 mps 750 mmHg 52%
17:00 +28°C° 0.3 mm 3 mps 750 mmHg 60%
18:00 +26°C° 0.3 mm 3 mps 750 mmHg 68%
19:00 +25°C° 0.3 mm 3 mps 750 mmHg 76%
20:00 +24°C° 0.1 mm 3 mps 750 mmHg 82%
21:00 +21°C° 0.1 mm 3 mps 750 mmHg 87%
22:00 +20°C° 0.1 mm 3 mps 750 mmHg 93%
23:00 +20°C° 0.1 mm 3 mps 750 mmHg 94%

Day after tomorrow, 27 July, Tuesday

Time Temperature Precipitation Wind Pressure Humidity
00:00 +20°C° 0.1 mm 2 mps 750 mmHg 95%
01:00 +19°C° 0.1 mm 2 mps 750 mmHg 96%
02:00 +19°C° 0 mm 2 mps 749 mmHg 96%
03:00 +20°C° 0 mm 1 mps 749 mmHg 96%
04:00 +20°C° 0 mm 1 mps 749 mmHg 96%
05:00 +21°C° 0 mm 1 mps 750 mmHg 91%
06:00 +21°C° 0 mm 2 mps 750 mmHg 86%
07:00 +23°C° 0 mm 2 mps 750 mmHg 82%
08:00 +25°C° 0 mm 3 mps 750 mmHg 73%
09:00 +27°C° 0 mm 3 mps 750 mmHg 64%
10:00 +28°C° 0 mm 4 mps 750 mmHg 56%
11:00 +28°C° 0 mm 4 mps 750 mmHg 57%
12:00 +28°C° 0 mm 4 mps 750 mmHg 59%
13:00 +27°C° 0 mm 5 mps 750 mmHg 60%
14:00 +28°C° 0 mm 4 mps 750 mmHg 57%
15:00 +28°C° 0 mm 4 mps 750 mmHg 54%
16:00 +29°C° 0 mm 4 mps 750 mmHg 51%
17:00 +27°C° 0.2 mm 3 mps 750 mmHg 58%
18:00 +26°C° 0.2 mm 3 mps 750 mmHg 65%
19:00 +24°C° 0.2 mm 2 mps 750 mmHg 71%
20:00 +23°C° 0.1 mm 2 mps 751 mmHg 76%
21:00 +21°C° 0.1 mm 2 mps 751 mmHg 81%
22:00 +21°C° 0.1 mm 1 mps 751 mmHg 86%
23:00 +21°C° 0 mm 1 mps 751 mmHg 86%

28 July, Wednesday

Time Temperature Precipitation Wind Pressure Humidity
00:00 +20°C° 0 mm 1 mps 751 mmHg 86%
01:00 +20°C° 0 mm 1 mps 751 mmHg 86%
02:00 +20°C° 0 mm 1 mps 751 mmHg 86%
03:00 +20°C° 0 mm 1 mps 751 mmHg 86%
04:00 +19°C° 0 mm 2 mps 751 mmHg 86%
05:00 +20°C° 0 mm 2 mps 751 mmHg 78%
06:00 +22°C° 0 mm 3 mps 751 mmHg 71%
07:00 +24°C° 0 mm 3 mps 751 mmHg 63%
08:00 +26°C° 0 mm 3 mps 751 mmHg 57%
09:00 +27°C° 0 mm 3 mps 751 mmHg 50%
10:00 +29°C° 0 mm 4 mps 751 mmHg 44%
11:00 +29°C° 0 mm 4 mps 751 mmHg 44%
12:00 +29°C° 0 mm 4 mps 751 mmHg 44%
13:00 +29°C° 0 mm 4 mps 751 mmHg 44%
14:00 +29°C° 0 mm 4 mps 750 mmHg 44%
15:00 +29°C° 0 mm 4 mps 750 mmHg 44%
16:00 +29°C° 0 mm 4 mps 750 mmHg 44%
17:00 +27°C° 0 mm 4 mps 751 mmHg 48%
18:00 +26°C° 0 mm 5 mps 751 mmHg 52%
19:00 +24°C° 0 mm 6 mps 751 mmHg 56%
20:00 +23°C° 0 mm 5 mps 751 mmHg 60%
21:00 +22°C° 0 mm 3 mps 751 mmHg 65%
22:00 +21°C° 0 mm 2 mps 752 mmHg 69%
23:00 +20°C° 0 mm 2 mps 752 mmHg 74%

29 July, Thursday

Time Temperature Precipitation Wind Pressure Humidity
00:00 +18°C° 0 mm 2 mps 752 mmHg 79%
01:00 +17°C° 0 mm 2 mps 752 mmHg 84%
02:00 +17°C° 0 mm 2 mps 752 mmHg 86%
03:00 +16°C° 0 mm 2 mps 752 mmHg 88%
04:00 +16°C° 0 mm 2 mps 752 mmHg 90%
05:00 +18°C° 0 mm 2 mps 752 mmHg 82%
06:00 +19°C° 0 mm 2 mps 753 mmHg 75%
07:00 +21°C° 0 mm 2 mps 753 mmHg 68%
08:00 +23°C° 0 mm 2 mps 753 mmHg 62%
09:00 +25°C° 0 mm 3 mps 753 mmHg 55%
10:00 +26°C° 0 mm 3 mps 753 mmHg 49%
11:00 +27°C° 0 mm 3 mps 752 mmHg 46%
12:00 +28°C° 0 mm 3 mps 752 mmHg 42%
13:00 +29°C° 0 mm 3 mps 752 mmHg 39%
14:00 +29°C° 0 mm 3 mps 752 mmHg 42%
15:00 +28°C° 0 mm 3 mps 751 mmHg 45%
16:00 +27°C° 0 mm 2 mps 751 mmHg 48%
17:00 +26°C° 0 mm 2 mps 751 mmHg 50%
18:00 +26°C° 0 mm 1 mps 751 mmHg 52%
19:00 +25°C° 0 mm 1 mps 751 mmHg 54%
20:00 +24°C° 0 mm 1 mps 751 mmHg 54%
21:00 +24°C° 0 mm 2 mps 751 mmHg 55%
22:00 +23°C° 0 mm 2 mps 750 mmHg 55%
23:00 +23°C° 0 mm 2 mps 750 mmHg 57%

30 July, Friday

Time Temperature Precipitation Wind Pressure Humidity
00:00 +23°C° 0 mm 2 mps 750 mmHg 59%
01:00 +23°C° 0 mm 2 mps 750 mmHg 60%
02:00 +21°C° 0 mm 2 mps 750 mmHg 63%
03:00 +20°C° 0 mm 2 mps 749 mmHg 65%
04:00 +20°C° 0 mm 2 mps 749 mmHg 67%
05:00 +21°C° 0 mm 3 mps 749 mmHg 65%
06:00 +22°C° 0 mm 3 mps 749 mmHg 62%
07:00 +24°C° 0 mm 3 mps 749 mmHg 60%
08:00 +25°C° 0 mm 4 mps 749 mmHg 58%
09:00 +25°C° 0 mm 4 mps 748 mmHg 55%
10:00 +26°C° 0 mm 4 mps 748 mmHg 53%
11:00 +28°C° 0.1 mm 5 mps 747 mmHg 51%
12:00 +29°C° 0.1 mm 5 mps 747 mmHg 49%
13:00 +30°C° 0.1 mm 6 mps 746 mmHg 46%
14:00 +28°C° 0.4 mm 6 mps 747 mmHg 57%
15:00 +26°C° 0.4 mm 5 mps 747 mmHg 67%
16:00 +23°C° 0.4 mm 5 mps 747 mmHg 78%
17:00 +23°C° 0.3 mm 4 mps 747 mmHg 78%
18:00 +23°C° 0.3 mm 4 mps 747 mmHg 78%
19:00 +22°C° 0.3 mm 3 mps 747 mmHg 79%
20:00 +21°C° 0.1 mm 2 mps 747 mmHg 81%
21:00 +20°C° 0.1 mm 2 mps 747 mmHg 82%
22:00 +20°C° 0.1 mm 1 mps 748 mmHg 84%
23:00 +20°C° 0.1 mm 1 mps 748 mmHg 85%
Show more